Time,TemperatureF,DewpointF,PressureIn,WindDirection,WindDirectionDegrees,WindSpeedMPH,WindSpeedGustMPH,Humidity,HourlyPrecipIn,Conditions,Clouds,dailyrainin,SoftwareType,DateUTC
2013-01-31 00:03:00,29.0,26.0,29.45,West,273,5.0,12.0,89,0.00,,,1.21,,2013-01-31 05:03:00,
2013-01-31 00:11:00,29.0,26.0,29.45,West,273,5.0,12.0,89,0.00,,,1.21,,2013-01-31 05:11:00,
2013-01-31 00:22:00,28.0,25.0,29.46,NW,325,5.0,12.0,87,0.00,,,0.89,,2013-01-31 05:22:00,
2013-01-31 00:32:00,28.0,25.0,29.46,NW,325,5.0,12.0,87,0.00,,,0.89,,2013-01-31 05:32:00,
2013-01-31 00:41:00,28.0,24.0,29.47,WNW,294,6.0,15.0,85,0.00,,,0.89,,2013-01-31 05:41:00,
2013-01-31 00:52:00,28.0,24.0,29.47,WNW,294,6.0,15.0,85,0.00,,,0.89,,2013-01-31 05:52:00,
2013-01-31 01:01:00,28.0,24.0,29.47,WNW,294,6.0,15.0,85,0.00,,,0.89,,2013-01-31 06:01:00,
2013-01-31 01:10:00,28.0,24.0,29.47,WNW,294,6.0,15.0,85,0.00,,,0.89,,2013-01-31 06:10:00,
2013-01-31 09:02:00,19.0,16.0,29.72,WNW,290,3.0,8.0,87,0.00,,,0.02,,2013-01-31 14:02:00,
2013-01-31 09:11:00,19.0,16.0,29.72,WNW,290,3.0,8.0,87,0.00,,,0.02,,2013-01-31 14:11:00,
2013-01-31 09:22:00,19.0,16.0,29.72,North,9,4.0,9.0,86,0.00,,,0.02,,2013-01-31 14:22:00,
2013-01-31 09:32:00,19.0,15.0,29.73,SSE,163,3.0,10.0,84,0.00,,,0.02,,2013-01-31 14:32:00,
2013-01-31 09:42:00,19.0,15.0,29.73,SSE,163,3.0,10.0,84,0.00,,,0.02,,2013-01-31 14:42:00,
2013-01-31 09:52:00,19.0,15.0,29.74,ESE,103,2.0,12.0,83,0.00,,,0.02,,2013-01-31 14:52:00,
2013-01-31 10:03:00,19.0,14.0,29.75,SSW,198,3.0,12.0,82,0.00,,,0.02,,2013-01-31 15:03:00,
2013-01-31 10:12:00,19.0,14.0,29.75,SSW,198,3.0,12.0,82,0.00,,,0.02,,2013-01-31 15:12:00,
2013-01-31 10:22:00,19.0,14.0,29.76,NNE,32,3.0,8.0,82,0.00,,,0.02,,2013-01-31 15:22:00,
2013-01-31 10:32:00,20.0,15.0,29.76,South,181,4.0,9.0,82,0.00,,,0.02,,2013-01-31 15:32:00,
2013-01-31 10:42:00,20.0,15.0,29.76,South,181,4.0,9.0,82,0.00,,,0.02,,2013-01-31 15:42:00,
2013-01-31 10:51:00,20.0,15.0,29.76,ESE,116,4.0,12.0,80,0.00,,,0.02,,2013-01-31 15:51:00,
2013-01-31 11:03:00,21.0,16.0,29.77,SW,226,3.0,12.0,80,0.00,,,0.02,,2013-01-31 16:03:00,
2013-01-31 11:12:00,21.0,16.0,29.77,SW,226,3.0,12.0,80,0.00,,,0.02,,2013-01-31 16:12:00,
2013-01-31 11:22:00,21.0,16.0,29.78,NNE,16,3.0,12.0,79,0.00,,,0.02,,2013-01-31 16:22:00,
2013-01-31 11:33:00,22.0,16.0,29.78,WSW,246,4.0,12.0,79,0.00,,,0.01,,2013-01-31 16:33:00,
2013-01-31 11:42:00,22.0,16.0,29.78,WSW,246,4.0,12.0,79,0.00,,,0.01,,2013-01-31 16:42:00,
2013-01-31 11:51:00,22.0,15.0,29.79,WNW,289,3.0,11.0,74,0.00,,,0.01,,2013-01-31 16:51:00,
2013-01-31 12:02:00,22.0,16.0,29.80,South,180,3.0,10.0,79,0.00,,,0.01,,2013-01-31 17:02:00,
2013-01-31 12:12:00,22.0,16.0,29.80,South,180,3.0,10.0,79,0.00,,,0.01,,2013-01-31 17:12:00,
2013-01-31 12:23:00,22.0,16.0,29.80,SSW,202,4.0,9.0,78,0.00,,,0.01,,2013-01-31 17:23:00,
2013-01-31 12:32:00,23.0,16.0,29.80,WSW,239,2.0,8.0,75,0.00,,,0.01,,2013-01-31 17:32:00,
2013-01-31 12:43:00,23.0,16.0,29.80,WSW,239,2.0,8.0,75,0.00,,,0.01,,2013-01-31 17:43:00,
2013-01-31 12:53:00,23.0,15.0,29.80,ENE,76,3.0,13.0,72,0.00,,,0.01,,2013-01-31 17:53:00,
2013-01-31 13:03:00,22.0,16.0,29.80,West,276,3.0,11.0,77,0.00,,,0.01,,2013-01-31 18:03:00,
2013-01-31 13:12:00,21.0,15.0,29.80,WNW,296,3.0,11.0,76,0.00,,,0.01,,2013-01-31 18:12:00,
2013-01-31 13:22:00,21.0,15.0,29.80,WNW,296,3.0,11.0,76,0.00,,,0.01,,2013-01-31 18:22:00,
2013-01-31 13:32:00,21.0,14.0,29.80,West,280,3.0,11.0,75,0.00,,,0.01,,2013-01-31 18:32:00,
2013-01-31 13:43:00,21.0,14.0,29.80,West,280,3.0,11.0,75,0.00,,,0.01,,2013-01-31 18:43:00,
2013-01-31 13:52:00,21.0,13.0,29.81,NW,310,3.0,11.0,72,0.00,,,0.01,,2013-01-31 18:52:00,
2013-01-31 14:02:00,20.0,15.0,29.81,NW,325,2.0,8.0,80,0.00,,,0.01,,2013-01-31 19:02:00,
2013-01-31 14:12:00,20.0,15.0,29.81,NW,325,2.0,8.0,80,0.00,,,0.01,,2013-01-31 19:12:00,
2013-01-31 14:22:00,20.0,15.0,29.82,NW,319,2.0,9.0,82,0.00,,,0.01,,2013-01-31 19:22:00,
2013-01-31 14:32:00,21.0,14.0,29.82,West,277,4.0,10.0,75,0.00,,,0.01,,2013-01-31 19:32:00,
2013-01-31 14:42:00,21.0,14.0,29.82,West,277,4.0,10.0,75,0.00,,,0.01,,2013-01-31 19:42:00,
2013-01-31 14:51:00,20.0,12.0,29.83,West,266,3.0,10.0,72,0.00,,,0.01,,2013-01-31 19:51:00,
2013-01-31 15:02:00,21.0,13.0,29.83,ENE,69,5.0,10.0,71,0.00,,,0.01,,2013-01-31 20:02:00,
2013-01-31 15:11:00,21.0,13.0,29.83,ENE,69,5.0,10.0,71,0.00,,,0.01,,2013-01-31 20:11:00,
2013-01-31 15:22:00,20.0,12.0,29.84,NNW,341,5.0,12.0,71,0.00,,,0.01,,2013-01-31 20:22:00,
2013-01-31 15:31:00,20.0,12.0,29.84,WSW,252,4.0,10.0,71,0.00,,,0.01,,2013-01-31 20:31:00,
2013-01-31 15:42:00,20.0,12.0,29.84,WSW,252,4.0,10.0,71,0.00,,,0.01,,2013-01-31 20:42:00,
2013-01-31 15:52:00,19.0,11.0,29.84,ESE,115,3.0,14.0,72,0.00,,,0.01,,2013-01-31 20:52:00,
2013-01-31 16:02:00,19.0,12.0,29.85,NNE,16,2.0,11.0,74,0.00,,,0.01,,2013-01-31 21:02:00,
2013-01-31 16:12:00,19.0,12.0,29.85,NNE,16,2.0,11.0,74,0.00,,,0.01,,2013-01-31 21:12:00,
2013-01-31 16:22:00,19.0,12.0,29.85,NNE,16,2.0,11.0,74,0.00,,,0.01,,2013-01-31 21:22:00,
2013-01-31 16:32:00,18.0,12.0,29.85,SE,142,4.0,10.0,78,0.00,,,0.01,,2013-01-31 21:32:00,
2013-01-31 16:42:00,18.0,12.0,29.85,SE,142,4.0,10.0,78,0.00,,,0.01,,2013-01-31 21:42:00,
2013-01-31 16:52:00,18.0,12.0,29.86,ENE,59,2.0,9.0,77,0.00,,,0.01,,2013-01-31 21:52:00,
2013-01-31 17:03:00,18.0,11.0,29.87,West,267,2.0,9.0,75,0.00,,,0.01,,2013-01-31 22:03:00,
2013-01-31 17:11:00,18.0,11.0,29.87,West,267,2.0,9.0,75,0.00,,,0.01,,2013-01-31 22:11:00,
2013-01-31 17:22:00,17.0,11.0,29.87,SSW,212,2.0,9.0,77,0.00,,,0.01,,2013-01-31 22:22:00,
2013-01-31 17:33:00,17.0,12.0,29.87,West,281,3.0,9.0,79,0.00,,,0.01,,2013-01-31 22:33:00,
2013-01-31 17:42:00,17.0,12.0,29.87,West,281,3.0,9.0,79,0.00,,,0.01,,2013-01-31 22:42:00,
2013-01-31 17:51:00,17.0,10.0,29.88,NNW,346,4.0,9.0,74,0.00,,,0.01,,2013-01-31 22:51:00,
2013-01-31 18:02:00,17.0,10.0,29.88,NNW,346,4.0,9.0,74,0.00,,,0.01,,2013-01-31 23:02:00,
2013-01-31 18:12:00,17.0,10.0,29.88,NNW,346,4.0,9.0,74,0.00,,,0.01,,2013-01-31 23:12:00,
2013-01-31 18:22:00,17.0,10.0,29.88,North,355,4.0,12.0,75,0.00,,,0.01,,2013-01-31 23:22:00,
2013-01-31 18:32:00,17.0,11.0,29.89,SSW,199,2.0,9.0,76,0.00,,,0.01,,2013-01-31 23:32:00,
2013-01-31 18:42:00,17.0,11.0,29.89,SSW,199,2.0,9.0,76,0.00,,,0.01,,2013-01-31 23:42:00,
2013-01-31 18:52:00,17.0,11.0,29.90,SSW,202,4.0,11.0,78,0.00,,,0.01,,2013-01-31 23:52:00,
2013-01-31 19:01:00,17.0,11.0,29.90,SW,215,4.0,11.0,78,0.00,,,0.01,,2013-02-01 00:01:00,
2013-01-31 19:11:00,17.0,11.0,29.90,SW,215,4.0,11.0,78,0.00,,,0.01,,2013-02-01 00:11:00,
2013-01-31 19:22:00,16.0,10.0,29.91,WNW,294,5.0,13.0,78,0.00,,,0.00,,2013-02-01 00:22:00,
2013-01-31 19:32:00,16.0,10.0,29.92,NNE,17,3.0,14.0,76,0.00,,,0.00,,2013-02-01 00:32:00,
2013-01-31 19:42:00,16.0,10.0,29.92,NNE,17,3.0,14.0,76,0.00,,,0.00,,2013-02-01 00:42:00,
2013-01-31 19:51:00,16.0,10.0,29.93,NNW,340,2.0,11.0,76,0.00,,,0.00,,2013-02-01 00:51:00,
2013-01-31 20:01:00,16.0,10.0,29.93,WSW,248,3.0,12.0,76,0.00,,,0.00,,2013-02-01 01:01:00,
2013-01-31 20:11:00,15.0,9.0,29.95,NE,38,3.0,11.0,76,0.00,,,0.00,,2013-02-01 01:11:00,
2013-01-31 20:21:00,15.0,9.0,29.95,NE,38,3.0,11.0,76,0.00,,,0.00,,2013-02-01 01:21:00,
2013-01-31 20:32:00,15.0,9.0,29.95,ENE,68,3.0,16.0,76,0.00,,,0.00,,2013-02-01 01:32:00,
2013-01-31 20:42:00,15.0,9.0,29.95,ENE,68,3.0,16.0,76,0.00,,,0.00,,2013-02-01 01:42:00,
2013-01-31 20:52:00,15.0,9.0,29.95,West,280,4.0,11.0,77,0.00,,,0.00,,2013-02-01 01:52:00,
2013-01-31 21:02:00,15.0,9.0,29.96,SW,226,2.0,10.0,77,0.00,,,0.00,,2013-02-01 02:02:00,
2013-01-31 21:11:00,15.0,9.0,29.96,SW,226,2.0,10.0,77,0.00,,,0.00,,2013-02-01 02:11:00,
2013-01-31 21:21:00,14.0,9.0,29.96,WNW,294,4.0,14.0,79,0.00,,,0.00,,2013-02-01 02:21:00,
2013-01-31 21:32:00,14.0,9.0,29.97,NNE,32,4.0,13.0,80,0.00,,,0.00,,2013-02-01 02:32:00,
2013-01-31 21:42:00,14.0,9.0,29.97,NNE,32,4.0,13.0,80,0.00,,,0.00,,2013-02-01 02:42:00,
2013-01-31 21:52:00,14.0,10.0,29.98,WNW,291,3.0,12.0,84,0.00,,,0.00,,2013-02-01 02:52:00,
2013-01-31 22:02:00,13.0,10.0,29.98,NNW,339,2.0,8.0,86,0.00,,,0.00,,2013-02-01 03:02:00,
2013-01-31 22:12:00,13.0,10.0,29.98,NNW,339,2.0,8.0,86,0.00,,,0.00,,2013-02-01 03:12:00,
2013-01-31 22:21:00,13.0,9.0,29.99,East,95,3.0,13.0,85,0.00,,,0.00,,2013-02-01 03:21:00,
2013-01-31 22:32:00,13.0,10.0,29.99,SSE,165,3.0,9.0,86,0.00,,,0.00,,2013-02-01 03:32:00,
2013-01-31 22:42:00,13.0,10.0,29.99,SSE,165,3.0,9.0,86,0.00,,,0.00,,2013-02-01 03:42:00,
2013-01-31 22:51:00,13.0,10.0,30.00,East,80,2.0,9.0,86,0.00,,,0.00,,2013-02-01 03:51:00,
2013-01-31 23:02:00,12.0,9.0,30.00,SW,234,4.0,13.0,86,0.00,,,0.00,,2013-02-01 04:02:00,
2013-01-31 23:11:00,12.0,9.0,30.00,SW,234,4.0,13.0,86,0.00,,,0.00,,2013-02-01 04:11:00,
2013-01-31 23:21:00,12.0,8.0,30.01,North,5,4.0,14.0,85,0.00,,,0.00,,2013-02-01 04:21:00,
2013-01-31 23:32:00,11.0,8.0,30.01,SW,217,3.0,11.0,86,0.00,,,0.00,,2013-02-01 04:32:00,
2013-01-31 23:41:00,11.0,8.0,30.01,SW,217,3.0,11.0,86,0.00,,,0.00,,2013-02-01 04:41:00,
2013-01-31 23:51:00,11.0,8.0,30.01,WSW,252,2.0,9.0,86,0.00,,,0.00,,2013-02-01 04:51:00,